Weather History for Ft Lauderdale, FL

Change the Weather History Date:

Saturday, May 11, 2013

  Actual Average Record
Temperature  
Mean Temperature 81 °F 80 °F  
Max Temperature 87 °F 86 °F 96 °F (2008)
Min Temperature 75 °F 73 °F 53 °F (1928)
Degree Days  
Heating Degree Days 0 0  
Month to date heating degree days 0 0  
Since 1 July heating degree days 85 112  
Cooling Degree Days 16 14  
Month to date cooling degree days 128 150  
Year to date cooling degree days 1098 1097  
Growing Degree Days 30 (Base 50)    
Moisture  
Dew Point 73 °F    
Average Humidity 80    
Maximum Humidity 94    
Minimum Humidity 65    
Precipitation  
Precipitation 0.01 in 0.11 in 2.42 in (1987)
Month to date precipitation 6.12 0.95  
Year to date precipitation 15.25 13.79  
Snow  
Snow 0.00 in - - ()
Month to date snowfall 0.0  
Since 1 July snowfall 0.0  
Snow Depth 0.00 in    
Sea Level Pressure  
Sea Level Pressure 30.04 in    
Wind  
Wind Speed 7 mph (South)    
Max Wind Speed 22 mph    
Max Gust Speed 26 mph    
Visibility 10 miles    
Events Rain , Thunderstorm    
T = Trace of Precipitation, MM = Missing Value Source: NWS Daily Summary

Daily Weather History Graph

Daily Weather History Graph

Search for Another Location

Airport:

Trip Planner

Search our weather history database for the weather conditions in past years. The results will help you decide how hot, cold, wet, or windy it might be!

Date:

Astronomy

May. 11, 2013 Rise Set
Actual Time 6:36 AM EDT 7:57 PM EDT
Civil Twilight 6:11 AM EDT 8:22 PM EDT
Nautical Twilight 5:42 AM EDT 8:52 PM EDT
Astronomical Twilight 5:11 AM EDT 9:22 PM EDT
Moon 7:46 AM EDT (5/11) 9:33 PM EDT (5/11)
Length of Visible Light 14h 10m
Length of Day
13h 21m
Waxing Crescent, 3% of the Moon is Illuminated
May 11
Waxing Crescent
May 18
First Quarter
May 25
Full
May 31
Last Quarter
Jun 8
New

Hourly Weather History & Observations

Time (EDT) Temp. Heat Index Dew Point Humidity Pressure Visibility Wind Dir Wind Speed Gust Speed Precip Events Conditions
12:53 AM 78.1 °F - 73.0 °F 84% 30.07 in 10.0 mi Calm Calm - N/A   Scattered Clouds
1:53 AM 78.1 °F - 73.9 °F 87% 30.06 in 10.0 mi Calm Calm - N/A   Partly Cloudy
2:53 AM 77.0 °F - 73.9 °F 90% 30.04 in 10.0 mi Calm Calm - N/A   Partly Cloudy
3:53 AM 77.0 °F - 73.0 °F 88% 30.04 in 10.0 mi Calm Calm - N/A   Partly Cloudy
4:53 AM 77.0 °F - 73.0 °F 88% 30.04 in 10.0 mi Calm Calm - N/A   Partly Cloudy
5:53 AM 77.0 °F - 73.9 °F 90% 30.03 in 10.0 mi Calm Calm - N/A   Partly Cloudy
6:53 AM 75.0 °F - 73.0 °F 94% 30.04 in 10.0 mi SE 3.5 mph - N/A   Partly Cloudy
7:53 AM 79.0 °F - 73.0 °F 82% 30.06 in 10.0 mi South 4.6 mph - N/A   Scattered Clouds
8:53 AM 81.0 °F 84.9 °F 71.1 °F 72% 30.06 in 10.0 mi South 8.1 mph - N/A   Scattered Clouds
9:53 AM 78.1 °F - 73.9 °F 87% 30.08 in 10.0 mi South 8.1 mph - 0.00 in Rain Light Rain
10:53 AM 82.9 °F 90.2 °F 75.0 °F 77% 30.07 in 10.0 mi SSE 13.8 mph 20.7 mph 0.00 in   Scattered Clouds
11:53 AM 84.0 °F 91.2 °F 73.9 °F 72% 30.06 in 10.0 mi SSE 16.1 mph 23.0 mph N/A   Mostly Cloudy
12:53 PM 84.9 °F 91.4 °F 73.0 °F 67% 30.05 in 10.0 mi SSE 16.1 mph 23.0 mph N/A   Scattered Clouds
1:53 PM 84.9 °F 91.4 °F 73.0 °F 67% 30.03 in 10.0 mi SSE 15.0 mph 25.3 mph N/A   Scattered Clouds
2:53 PM 84.9 °F 90.7 °F 72.0 °F 65% 30.02 in 10.0 mi SE 17.3 mph 24.2 mph N/A   Scattered Clouds
3:32 PM 82.4 °F 87.2 °F 71.6 °F 70% 30.03 in 10.0 mi South 10.4 mph 20.7 mph 0.00 in Rain , Thunderstorm Light Thunderstorms and Rain
3:53 PM 82.0 °F 87.9 °F 73.9 °F 76% 30.03 in 10.0 mi South 9.2 mph 16.1 mph 0.01 in Rain , Thunderstorm Light Thunderstorms and Rain
4:18 PM 82.4 °F 88.2 °F 73.4 °F 74% 30.01 in 10.0 mi South 8.1 mph - 0.00 in   Mostly Cloudy
4:53 PM 84.0 °F 89.6 °F 72.0 °F 67% 29.99 in 10.0 mi SSE 16.1 mph 23.0 mph 0.00 in   Scattered Clouds
5:53 PM 81.0 °F 85.2 °F 72.0 °F 74% 29.99 in 10.0 mi SSE 15.0 mph 19.6 mph N/A   Scattered Clouds
6:53 PM 81.0 °F 85.2 °F 72.0 °F 74% 30.00 in 10.0 mi South 11.5 mph - N/A   Scattered Clouds
7:53 PM 81.0 °F 85.2 °F 72.0 °F 74% 30.03 in 10.0 mi South 5.8 mph - N/A   Partly Cloudy
8:16 PM 80.6 °F 84.6 °F 71.6 °F 74% 30.04 in 10.0 mi WNW 5.8 mph - 0.00 in Rain , Thunderstorm Light Thunderstorms and Rain
8:29 PM 78.8 °F - 71.6 °F 78% 30.05 in 10.0 mi WNW 9.2 mph - 0.00 in Rain , Thunderstorm Light Thunderstorms and Rain
8:53 PM 75.9 °F - 71.1 °F 85% 30.05 in 10.0 mi West 8.1 mph - 0.00 in Rain , Thunderstorm Light Thunderstorms and Rain
9:00 PM 75.2 °F - 69.8 °F 83% 30.05 in 10.0 mi WSW 5.8 mph - 0.00 in   Mostly Cloudy
9:53 PM 77.0 °F - 71.1 °F 82% 30.05 in 10.0 mi SE 3.5 mph - 0.00 in   Overcast
10:53 PM 77.0 °F - 71.1 °F 82% 30.06 in 10.0 mi Calm Calm - N/A   Overcast
11:53 PM 77.0 °F - 71.1 °F 82% 30.06 in 10.0 mi Calm Calm - N/A   Partly Cloudy